Flag for Germany Weather past 2 weeks in Erfurt, Thuringia, Germany

Now
54 °F

Partly sunny.


Feels Like: 53 °F
Forecast: 45 / 58 °F
Wind: 3 mph from West

Location: Erfurt-Bindersleben

Current Time: Oct 25, 2014 at 5:21:40 PM

Latest Report: Oct 25, 2014 at 4:50 PM


Visibility: N/A

Pressure: 30.12 "Hg

Humidity: 72%

Dew point: 45 °F

Location of ErfurtLocation

Historic Weather in Erfurt — Graph

°F

Erfurt temperature yesterday

Maximum temperature yesterday: 57 °F (at 1:50 PM)
Minimum temperature yesterday: 37 °F (at 2:20 AM)
Average temperature yesterday: 47 °F

Past Weeks' High & Low Weather Summary

 TemperatureHumidityPressure
High68 °F (Oct 19, 12:20 PM)100% (Oct 11, 2:20 AM)30.24 "Hg (Oct 11, 2:20 AM)
Low37 °F (Oct 24, 2:20 AM)55% (Oct 15, 2:50 PM)29.47 "Hg (Oct 21, 8:20 PM)
Average54 °F86%29.94 "Hg
* Reported Oct 10 4:20 PM — Oct 25 4:20 PM, Erfurt, Weather by CustomWeather, © 2014

Note: Actual official high and low records may vary slightly from our data, if they occured in-between our weather recording intervals... More about our weather records

Advertising

Erfurt weather history for previous 24 hours

 ConditionsComfort  
Time TempWeatherWind HumidityBarometerVisibility
4:20 PM
Oct 25
54 °FPartly sunny.6 mph72%30.12 "HgN/A
3:50 PM54 °FPartly sunny.8 mph77%30.12 "HgN/A
3:20 PM54 °FPartly sunny.9 mph72%30.12 "HgN/A
2:50 PM54 °FLight rain. Partly sunny.8 mph72%30.12 "HgN/A
2:20 PM52 °FLight rain. Partly sunny.7 mph77%30.12 "HgN/A
1:50 PM54 °FPartly sunny.7 mph77%30.12 "HgN/A
1:20 PM54 °FBroken clouds.6 mph72%30.12 "HgN/A
12:50 PM54 °FBroken clouds.7 mph77%30.12 "HgN/A
12:20 PM52 °FSunny.6 mph77%30.12 "Hg10 mi
11:50 AM52 °FSunny.6 mph77%30.12 "Hg10 mi
11:20 AM50 °FSunny.6 mph82%30.12 "Hg10 mi
10:50 AM48 °FSunny.7 mph87%30.12 "Hg10 mi
10:20 AM48 °FSunny.7 mph87%30.09 "Hg10 mi
9:50 AM46 °FSunny.6 mph87%30.09 "Hg10 mi
9:20 AM46 °FSunny.7 mph87%30.09 "Hg10 mi
8:50 AM46 °FClear.6 mph87%30.09 "Hg10 mi
8:20 AM45 °FClear.7 mph93%30.09 "Hg10 mi
7:50 AM45 °FClear.7 mph93%30.09 "Hg10 mi
7:20 AM45 °FClear.7 mph93%30.09 "Hg10 mi
6:50 AM45 °FClear.6 mph93%30.07 "Hg10 mi
6:20 AM45 °FClear.6 mph93%30.09 "Hg10 mi
5:50 AM45 °FClear.7 mph93%30.09 "Hg10 mi
5:20 AM45 °FClear.7 mph93%30.09 "Hg10 mi
4:50 AM45 °FClear.6 mph93%30.09 "Hg10 mi
4:20 AM45 °FClear.7 mph87%30.09 "Hg10 mi
3:50 AM45 °FClear.8 mph87%30.09 "Hg10 mi
3:20 AM45 °FClear.8 mph93%30.09 "Hg10 mi
2:50 AM45 °FClear.8 mph87%30.09 "Hg10 mi
2:20 AM45 °FClear.8 mph93%30.09 "Hg10 mi
1:50 AM45 °FClear.8 mph87%30.09 "Hg10 mi
1:20 AM43 °FClear.8 mph93%30.12 "Hg10 mi
12:50 AM45 °FClear.7 mph87%30.12 "Hg10 mi
12:20 AM45 °FClear.7 mph87%30.12 "Hg10 mi
11:50 PM
Oct 24
45 °FClear.6 mph87%30.12 "Hg10 mi
11:20 PM45 °FClear.8 mph87%30.12 "Hg10 mi
10:50 PM45 °FClear.6 mph87%30.12 "Hg10 mi
10:20 PM45 °FClear.6 mph87%30.12 "Hg10 mi
9:50 PM45 °FClear.7 mph87%30.12 "Hg10 mi
9:20 PM45 °FClear.6 mph87%30.12 "Hg10 mi
8:50 PM46 °FClear.6 mph87%30.12 "Hg10 mi
8:20 PM46 °FClear.6 mph87%30.12 "Hg10 mi
7:50 PM46 °FClear.7 mph82%30.12 "Hg10 mi
7:20 PM50 °FClear.5 mph76%30.12 "Hg10 mi
6:50 PM50 °FSunny.5 mph76%30.12 "Hg10 mi
6:20 PM52 °FSunny.3 mph67%30.12 "Hg10 mi
5:50 PM54 °FSunny.6 mph67%30.12 "Hg10 mi
5:20 PM55 °FSunny.3 mph63%30.12 "Hg10 mi
Weather by CustomWeather, © 2014

See weather overviewHow to use our weather pages